This is the latest recevied weather packets stored in our database for station/object AJ5AG. If no packets are shown the sender has not sent any weather packets the latest 10 day(s).
| Time | Temp. | Humidity | Pressure | Rain* | Wind** | Luminosity | Snow |
|---|---|---|---|---|---|---|---|
| 1777906436 | 22.78° C | 59% | 1018.7 hPa | 0 mm | - | 433 W/m² | - |
| 1777906133 | 22.78° C | 56% | 1018.7 hPa | 0 mm | - | 449 W/m² | - |
| 1777905829 | 22.78° C | 58% | 1018.7 hPa | 0 mm | - | 259 W/m² | - |
| 1777905527 | 22.22° C | 58% | 1018.7 hPa | 0 mm | - | 370 W/m² | - |
| 1777905223 | 22.22° C | 59% | 1018.7 hPa | 0 mm | - | 419 W/m² | - |
| 1777904921 | 21.67° C | 60% | 1018.6 hPa | 0 mm | - | 287 W/m² | - |
| 1777904618 | 21.11° C | 63% | 1018.6 hPa | 0 mm | - | 260 W/m² | - |
| 1777904315 | 21.11° C | 61% | 1018.4 hPa | 0 mm | - | 117 W/m² | - |
| 1777904012 | 20.56° C | 64% | 1018.7 hPa | 0 mm | - | 59 W/m² | - |
| 1777903709 | 20.56° C | 66% | 1018.7 hPa | 0 mm | - | 50 W/m² | - |
| 1777903404 | 20° C | 65% | 1018.7 hPa | 0 mm | - | 51 W/m² | - |
| 1777903101 | 20° C | 66% | 1018.7 hPa | 0 mm | - | 49 W/m² | - |
| 1777902798 | 19.44° C | 69% | 1018.5 hPa | 0 mm | - | 38 W/m² | - |
| 1777902496 | 18.89° C | 71% | 1018.7 hPa | 0 mm | - | 48 W/m² | - |
| 1777902192 | 18.33° C | 74% | 1018.7 hPa | 0 mm | - | 36 W/m² | - |
| 1777901890 | 17.78° C | 77% | 1018.7 hPa | 0 mm | - | 36 W/m² | - |
| 1777901588 | 17.22° C | 79% | 1018.7 hPa | 0 mm | - | 35 W/m² | - |
| 1777901285 | 16.67° C | 85% | 1018.6 hPa | 0 mm | - | 35 W/m² | - |
| 1777900982 | 15.56° C | 88% | 1018.6 hPa | 0 mm | - | 33 W/m² | - |
| 1777900679 | 15.56° C | 89% | 1018.7 hPa | 0 mm | - | 32 W/m² | - |
| 1777900376 | 15° C | 90% | 1018.6 hPa | 0 mm | - | 33 W/m² | - |
| 1777900073 | 14.44° C | 91% | 1018.7 hPa | 0 mm | - | 33 W/m² | - |
| 1777899769 | 14.44° C | 91% | 1018.5 hPa | 0 mm | - | 36 W/m² | - |
| 1777899466 | 13.89° C | 92% | 1018.6 hPa | 0 mm | - | 28 W/m² | - |
| 1777899164 | 13.89° C | 92% | 1018.4 hPa | 0 mm | - | 27 W/m² | - |
* Rain latest hour (hover to see other rain measurements)
** Current wind speed in m/s (hover to see current wind gust speed)